389  
ASUS41 KLWX 272112  
RWRLWX  
 
REGIONAL WEATHER ROUNDUP  
NATIONAL WEATHER SERVICE BALTIMORE MD/WASHINGTON DC  
400 PM EST THU FEB 27 2020  
 
NOTE: "FAIR" INDICATES FEW OR NO CLOUDS BELOW 12,000 FEET  
WITH NO SIGNIFICANT WEATHER AND/OR S TO VISIBILITY
.  
TC=TEMPERATURE CELSIUS  
 
* =NON NWS SITE. STATION DOES NOT REPORT PRECIPITATION (E.G. RAIN,  
SNOW, ETC.), THUNDER, OR FOG.
 
 
DCZ001-MDZ009-015-VAZ040>042-051-053>054-272200-  
WASHINGTON METRO  
 
CITY SKY/WX TMP DP RH WIND PRES REMARKS
 
WASHINGTON NAT FAIR 43 15 32 NW21G31 29.86R WCI 34  
DULLES FAIR 40 17 39 NW21G28 29.86S WCI 30  
QUANTICO FAIR 46 14 27 NW17G26 29.87R  
COLLEGE PARK* FAIR 39 10 29 NW13G21 29.86R WCI 32  
LEESBURG* PTSUNNY 37 19 48 NW21G37 29.88R WCI 27  
MANASSAS* FAIR 42 17 36 NW17G24 29.88R WCI 34  
GAITHERSBURG* PTSUNNY 36 15 42 NW24G31 29.86R WCI 24  
 

 
 
MDZ006>007-011-014-272200-  
BALTIMORE METRO  
 
CITY SKY/WX TMP DP RH WIND PRES REMARKS
 
BWI AIRPORT FAIR 39 13 34 W24G41 29.85R WCI 28  
MD SCIENCE CTR N/A 40 13 33 MISG 29.81R  
MARTIN STATE MOSUNNY 37 18 44 W24G35 29.86R WCI 26  
ANNAPOLIS FAIR 41 17 38 W15G25 29.85R WCI 33  
FORT MEADE* FAIR 39 18 41 W15G32 29.88R WCI 31  
 

 
 
MDZ012-015-019>023-272200-  
MARYLAND EASTERN SHORE  
 
CITY SKY/WX TMP DP RH WIND PRES REMARKS
 
OCEAN CITY FAIR 46 17 31 W18G31 29.80R  
SALISBURY FAIR 47 15 27 W17G25 29.81R  
BAY BRIDGE AP* FAIR 41 18 38 W23G31 29.85R WCI 31  
CAMBRIDGE* SUNNY 45 18 33 NW13G22 29.82R  
EASTON* SUNNY 43 16 33 W18G29 29.87R WCI 34  
 

 
 
MDZ017>025-272200-  
SOUTHERN MARYLAND  
 
CITY SKY/WX TMP DP RH WIND PRES REMARKS
 
PATUXENT RIVER FAIR 48 16 27 W23G30 29.83R  
ST INIGOES FAIR 49 12 22 W17G30 29.83R  
LEONARDTOWN* FAIR 45 10 24 W16G25 29.85R  
 

 
 
MDZ003>005-272200-  
NORTH CENTRAL MARYLAND  
 
CITY SKY/WX TMP DP RH WIND PRES REMARKS
 
FREDERICK* FLURRIES 36 18 48 W18G25 29.89R WCI 25  
HAGERSTOWN APT CLOUDY 33 13 43 W20G33 29.84R WCI 21  
 

 
 
MDZ501>502-272200-  
WESTERN MARYLAND  
 
CITY SKY/WX TMP DP RH WIND PRES REMARKS
 
OAKLAND* CLOUDY 18 14 86 W18G29 29.76R VSB 3/4 WCI 2  
CUMBERLAND* FLURRIES 29 19 63 W21G26 29.93R WCI 16  
 

 
 
VAZ025>031-272200-  
SHENANDOAH VALLEY  
 
CITY SKY/WX TMP DP RH WIND PRES REMARKS
 
WINCHESTER* PTSUNNY 34 16 47 W17G35 29.86R WCI 23  
FRONT ROYAL* FAIR 34 14 44 W9G32 29.87R WCI 26  
LURAY* FAIR 36 12 38 W16G25 29.88R WCI 26  
NEW MARKET* FAIR 36 8 32 W10G21 29.89R WCI 28  
STAUNTON* FAIR 35 11 36 W20G29 29.90R WCI 24  
WAYNESBORO* FAIR 36 11 36 W10G22 29.87R WCI 28  
 

 
 
WVZ021-048>050-054>055-272200-  
EASTERN WEST VIRGINIA PANHANDLE  
 
CITY SKY/WX TMP DP RH WIND PRES REMARKS
 
MARTINSBURG CLOUDY 33 14 45 W18 29.86R WCI 22  
PETERSBURG* CLOUDY 31 15 52 W18 29.91R WCI 19  
 

 
 
VAZ036>039-050-272200-  
CENTRAL FOOTHILLS  
 
CITY SKY/WX TMP DP RH WIND PRES REMARKS
 
CHARLOTTESVILL FAIR 44 10 25 W10G22 29.89R  
CULPEPER* FAIR 44 10 24 W16G24 29.88R  
ORANGE* FAIR 43 14 31 W17 29.87R WCI 35  
GORDONSVILLE* FAIR 43 10 25 W15G25 29.88R  
WARRENTON* FAIR 45 13 27 W10G18 29.86R  
 

 
 
VAZ055>057-272200-  
NORTH AND CENTRAL PIEDMONT  
 
CITY SKY/WX TMP DP RH WIND PRES REMARKS
 
FREDERICKSBRG* FAIR 46 18 32 W14G25 29.86R  
STAFFORD* FAIR 46 13 26 W15G21 29.90R  
 

 
 
NCZ024-NYZ072-PAZ021-071-VAZ022-071-272200-  
OTHER REGIONAL OBSERVATIONS  
 
CITY SKY/WX TMP DP RH WIND PRES REMARKS
 
NEW YORK CITY FAIR 40 14 34 W14G29 29.63R WCI 32  
PHILADELPHIA FAIR 42 13 30 W21G31 29.74R WCI 33  
PITTSBURGH LGT SNOW 25 15 66 W18G31 29.87R WCI 11  
ROANOKE FAIR 41 14 33 W16G29 29.96R WCI 33  
RICHMOND FAIR 48 15 26 W15G26 29.87R  
RALEIGH FAIR 49 14 24 NW12G22 29.97R  
 

 
 
ANZ530>537-272200-  
MARINE OBSERVATIONS  
 
STATION/POSITION TIME TEMP WIND PRES
 
AIR SEA DIR/SP/G  
(UTC) (F) (DEG/KT/KT) (MB)  
THOMAS PT LIGHT 2100 40 43 280/ 23/ 28 1011.4R  
BALT KEY BRIDGE 2030 38 270/ 27/ 34 1009.4R  
TOLCHESTER 2024 39 43 280/ 27/ 31 1009.5R  
LEWISETTA 2030 46 46 280/ 17/ 25 1010.5R  
SOLOMONS ISLAND 2030 46 44 260/ 16/ 25 1009.5R  
PINEY POINT 2030 320/ 25/ 30 N/A  
POTOMAC BUOY 2054 44 44 320/ 23/ 25 1010.2R  
CAMBRIDGE 2024 43 45 290/ 17/ 25 1009.4  
BISHOPS HEAD 2030 45 47 290/ 18/ 21 1009.5R  
 

 
 
 
 
CLICK HERE TO GO TO PREVIOUS BULLETINS.

The Nexlab VA Page
The Nexlab MD Page
The Nexlab WV Page Main Text Page